Howell, MI

2:06 AM EDT on April 21, 2018 (GMT -0400)
Livingston County

Weather History for KOZW - June, 2013

Change the Weather History Date:

Saturday, June 15, 2013

  Actual Average Record
Temperature  
Mean Temperature 67 °F -  
Max Temperature 78 °F 77 °F 91 °F (2001)
Min Temperature 56 °F 56 °F 42 °F (1999)
Cooling Degree Days 2    
Growing Degree Days 17 (Base 50)    
Moisture  
Dew Point 58 °F    
Average Humidity 76    
Maximum Humidity 94    
Minimum Humidity 49    
Precipitation  
Precipitation 0.00 in - - ()
Sea Level Pressure  
Sea Level Pressure 30.02 in    
Wind  
Wind Speed 4 mph (SW)    
Max Wind Speed 12 mph    
Max Gust Speed 22 mph    
Visibility 10 miles    
Events Rain    
Averages and records for this station are not official NWS values.
T = Trace of Precipitation, MM = Missing Value Source: NWS Daily Summary

Daily Weather History Graph

Daily Weather History Graph

Search for Another Location

Airport or City:

Astronomy

Jun. 15, 2013 Rise Set
Actual Time 5:57 AM EDT 9:15 PM EDT
Civil Twilight 5:22 AM EDT 9:50 PM EDT
Nautical Twilight 4:37 AM EDT 10:35 PM EDT
Astronomical Twilight 3:41 AM EDT 11:31 PM EDT
Moon 12:39 PM EDT (6/15) 12:43 AM EDT (6/15)
Length of Visible Light 16h 28m
Length of Day
15h 18m
Waxing Crescent, 39% of the Moon is Illuminated
Jun 15
Waxing Crescent
Jun 16
First Quarter
Jun 23
Full
Jun 30
Last Quarter
Jul 8
New

Hourly Weather History & Observations

Time (EDT) Temp. Dew Point Humidity Pressure Visibility Wind Dir Wind Speed Gust Speed Precip Events Conditions
12:15 AM 59.2 °F 53.1 °F 80% 30.05 in 10.0 mi SE 4.6 mph - N/A   Clear
12:35 AM 58.3 °F 52.7 °F 82% 30.05 in 10.0 mi ESE 5.8 mph - N/A   Clear
12:54 AM 58.6 °F 53.2 °F 82% 30.04 in 10.0 mi ESE 5.8 mph - N/A   Clear
1:15 AM 58.5 °F 53.2 °F 83% 30.04 in 10.0 mi SE 3.5 mph - N/A   Clear
1:35 AM 58.6 °F 53.4 °F 83% 30.04 in 10.0 mi Calm Calm - N/A   Clear
1:54 AM 59.2 °F 53.8 °F 82% 30.05 in 10.0 mi SSE 3.5 mph - N/A   Clear
2:15 AM 58.1 °F 53.8 °F 86% 30.05 in 10.0 mi SSE 4.6 mph - N/A   Clear
2:35 AM 58.6 °F 54.5 °F 86% 30.05 in 10.0 mi SSE 3.5 mph - N/A   Clear
2:54 AM 58.1 °F 54.3 °F 87% 30.05 in 10.0 mi Calm Calm - N/A   Clear
3:15 AM 56.7 °F 53.6 °F 89% 30.06 in 10.0 mi WSW 4.6 mph - N/A   Clear
3:35 AM 56.1 °F 53.8 °F 92% 30.06 in 10.0 mi WSW 4.6 mph - N/A   Clear
3:55 AM 56.3 °F 54.1 °F 92% 30.06 in 10.0 mi WSW 3.5 mph - N/A   Clear
4:15 AM 56.3 °F 54.5 °F 94% 30.07 in 10.0 mi SW 3.5 mph - N/A   Clear
4:35 AM 57.0 °F 54.9 °F 92% 30.06 in 10.0 mi Calm Calm - N/A   Clear
4:55 AM 56.8 °F 54.9 °F 93% 30.06 in 10.0 mi Calm Calm - N/A   Clear
5:15 AM 57.2 °F 54.7 °F 91% 30.05 in 10.0 mi SSW 3.5 mph - N/A   Clear
5:34 AM 57.6 °F 54.7 °F 90% 30.05 in 10.0 mi Calm Calm - N/A   Clear
5:55 AM 56.3 °F 54.5 °F 94% 30.05 in 10.0 mi SSW 3.5 mph - N/A   Clear
6:15 AM 57.9 °F 55.8 °F 92% 30.07 in 10.0 mi SW 3.5 mph - N/A   Scattered Clouds
6:34 AM 58.3 °F 55.9 °F 92% 30.07 in 10.0 mi Calm Calm - N/A   Scattered Clouds
6:55 AM 58.5 °F 56.3 °F 93% 30.08 in 10.0 mi SSW 3.5 mph - N/A   Scattered Clouds
7:15 AM 59.2 °F 56.5 °F 91% 30.09 in 10.0 mi Calm Calm - N/A   Scattered Clouds
7:34 AM 59.9 °F 56.7 °F 89% 30.10 in 10.0 mi Calm Calm - N/A   Scattered Clouds
7:55 AM 60.8 °F 57.4 °F 88% 30.09 in 10.0 mi Calm Calm - N/A   Scattered Clouds
8:15 AM 61.9 °F 57.6 °F 86% 30.09 in 10.0 mi Calm Calm - N/A   Scattered Clouds
8:34 AM 62.6 °F 57.4 °F 83% 30.08 in 10.0 mi SSW 3.5 mph - N/A   Scattered Clouds
8:55 AM 63.5 °F 57.4 °F 80% 30.08 in 10.0 mi Calm Calm - N/A   Clear
9:15 AM 66.2 °F 57.9 °F 75% 30.08 in 10.0 mi Calm Calm - N/A   Clear
9:34 AM 67.1 °F 58.5 °F 74% 30.08 in 10.0 mi SSW 3.5 mph - N/A   Scattered Clouds
9:55 AM 69.1 °F 59.0 °F 70% 30.07 in 10.0 mi SSW 4.6 mph - N/A   Scattered Clouds
10:14 AM 71.1 °F 59.0 °F 66% 30.06 in 10.0 mi SSW 4.6 mph - N/A   Clear
10:35 AM 72.9 °F 59.2 °F 62% 30.06 in 10.0 mi SW 5.8 mph - N/A   Scattered Clouds
10:55 AM 73.4 °F 59.0 °F 61% 30.05 in 10.0 mi SSW 5.8 mph - N/A   Mostly Cloudy
11:14 AM 74.3 °F 58.3 °F 57% 30.04 in 10.0 mi SSW 5.8 mph - N/A   Mostly Cloudy
11:35 AM 75.7 °F 58.6 °F 55% 30.03 in 10.0 mi SW 5.8 mph - N/A   Mostly Cloudy
11:55 AM 75.9 °F 58.3 °F 54% 30.03 in 10.0 mi WSW 6.9 mph - N/A   Scattered Clouds
12:15 PM 75.2 °F 58.1 °F 55% 30.03 in 10.0 mi SSW 8.1 mph - N/A   Mostly Cloudy
12:35 PM 75.6 °F 58.1 °F 55% 30.03 in 10.0 mi WSW 8.1 mph - N/A   Overcast
12:54 PM 74.5 °F 58.5 °F 57% 30.03 in 10.0 mi WSW 6.9 mph - N/A   Overcast
1:15 PM 74.7 °F 58.8 °F 58% 30.03 in 10.0 mi SW 8.1 mph - N/A   Overcast
1:35 PM 76.6 °F 58.8 °F 54% 30.02 in 10.0 mi WSW 4.6 mph - N/A   Scattered Clouds
1:55 PM 78.1 °F 57.6 °F 49% 30.02 in 10.0 mi SW 4.6 mph - N/A   Scattered Clouds
2:15 PM 77.4 °F 58.6 °F 52% 30.01 in 10.0 mi WSW 6.9 mph - N/A   Scattered Clouds
2:34 PM 77.4 °F 59.4 °F 54% 30.01 in 10.0 mi WSW 9.2 mph - N/A   Scattered Clouds
2:55 PM 77.0 °F 58.8 °F 53% 30.02 in 10.0 mi SSW 8.1 mph - N/A   Scattered Clouds
3:14 PM 76.6 °F 58.1 °F 53% 30.02 in 10.0 mi WSW 5.8 mph - N/A   Mostly Cloudy
3:35 PM 75.4 °F 58.6 °F 56% 30.02 in 10.0 mi SW 6.9 mph - N/A   Mostly Cloudy
3:55 PM 76.1 °F 59.0 °F 55% 30.01 in 10.0 mi WSW 6.9 mph - N/A Rain Light Rain
4:14 PM 76.3 °F 59.5 °F 56% 30.01 in 10.0 mi SW 8.1 mph - N/A   Scattered Clouds
4:35 PM 74.7 °F 60.3 °F 61% 30.01 in 10.0 mi WSW 9.2 mph - N/A   Mostly Cloudy
4:55 PM 73.8 °F 61.7 °F 66% 30.01 in 10.0 mi West 5.8 mph - N/A   Overcast
5:15 PM 74.3 °F 62.8 °F 67% 30.00 in 10.0 mi WSW 4.6 mph - N/A   Overcast
5:35 PM 73.2 °F 63.0 °F 70% 30.00 in 10.0 mi SW 6.9 mph - N/A   Overcast
5:54 PM 71.1 °F 63.9 °F 78% 30.00 in 10.0 mi WSW 11.5 mph 17.3 mph N/A Rain Light Rain
6:15 PM 69.8 °F 61.7 °F 75% 30.00 in 10.0 mi WSW 9.2 mph 21.9 mph N/A   Overcast
6:35 PM 70.9 °F 61.3 °F 72% 29.98 in 10.0 mi WSW 10.4 mph - N/A   Overcast
6:54 PM 70.7 °F 61.9 °F 74% 29.98 in 10.0 mi SW 4.6 mph - N/A   Overcast
7:15 PM 70.3 °F 61.0 °F 72% 29.98 in 10.0 mi WSW 11.5 mph 18.4 mph N/A   Scattered Clouds
7:35 PM 69.8 °F 61.7 °F 75% 29.98 in 10.0 mi WSW 9.2 mph - N/A   Scattered Clouds
7:54 PM 69.8 °F 61.9 °F 76% 29.97 in 10.0 mi SW 6.9 mph - N/A   Scattered Clouds
8:15 PM 69.1 °F 61.7 °F 77% 29.97 in 10.0 mi WSW 5.8 mph - N/A   Scattered Clouds
8:35 PM 69.1 °F 61.7 °F 77% 29.95 in 10.0 mi Calm Calm - N/A   Mostly Cloudy
8:54 PM 68.2 °F 60.8 °F 77% 29.97 in 10.0 mi WSW 3.5 mph - N/A   Scattered Clouds
9:15 PM 67.8 °F 60.4 °F 77% 29.96 in 10.0 mi Calm Calm - N/A   Mostly Cloudy
9:34 PM 66.6 °F 60.8 °F 82% 29.95 in 10.0 mi Calm Calm - N/A   Scattered Clouds
9:55 PM 65.3 °F 60.4 °F 84% 29.95 in 10.0 mi South 3.5 mph - N/A   Clear
10:15 PM 64.6 °F 60.4 °F 86% 29.95 in 10.0 mi SSE 4.6 mph - N/A   Clear
10:34 PM 64.8 °F 61.0 °F 88% 29.95 in 10.0 mi SSE 4.6 mph - N/A   Clear
10:55 PM 64.4 °F 60.8 °F 88% 29.95 in 10.0 mi SSE 4.6 mph - N/A   Clear
11:15 PM 64.0 °F 60.8 °F 89% 29.94 in 10.0 mi South 4.6 mph - N/A   Clear
11:35 PM 64.8 °F 61.0 °F 88% 29.94 in 10.0 mi South 5.8 mph - N/A   Clear
11:55 PM 65.1 °F 61.2 °F 87% 29.93 in 10.0 mi South 8.1 mph - N/A   Clear